PRIMDA Weather Reports


time (UTC)temp
C
wind
direction
speed
KPH
gust
KPH
rain 1hr
cm
rain 24hr
cm
rain mn
cm
humidity
%
barometer
mb
20260505121606 22 110 3.2 0.0 0.00 0.00 0.00 35
20260505111606 20 20 3.2 0.0 0.00 0.00 0.00 45
20260505101606 20 40 8.0 0.0 0.00 0.00 0.00 45
20260505091606 17 70 3.2 0.0 0.00 0.00 0.00 52
20260505081606 17 70 8.0 0.0 0.00 0.00 0.00 51
20260505071606 15 70 8.0 0.0 0.00 0.00 0.00 62
20260505061606 15 70 8.0 0.0 0.00 0.00 0.00 62
20260505051607 12 70 11.3 0.0 0.00 0.00 0.00 66
20260505041605 12 70 11.3 0.0 0.00 0.00 0.00 66
20260505031607 12 70 8.0 0.0 0.00 0.00 0.00 66
20260505021606 13 70 8.0 0.0 0.00 0.00 0.00 62
20260505011608 13 80 11.3 0.0 0.00 0.00 0.00 58
20260505001607 15 60 8.0 0.0 0.00 0.00 0.00 54
20260504231607 15 30 8.0 0.0 0.00 0.00 0.00 54
20260504221607 16 40 3.2 0.0 0.00 0.00 0.00 44
20260504211606 17 20 3.2 0.0 0.00 0.00 0.00 34
20260504201605 17 60 3.2 0.0 0.00 0.00 0.00 36
20260504191607 17 20 8.0 0.0 0.00 0.00 0.00 39
20260504181607 17 290 3.2 0.0 0.00 0.00 0.00 39
20260504171608 18 0 0.0 0.0 0.00 0.00 0.00 34